Skip Page Navigation
NASA JPL Caltech
NASA Logo - Jet Propulsion Laboratory + View the NASA Portal
+ Center for Near-Earth Object Studies
JPL Home Earth Solar System Stars & Galaxies Technology
JPL Solar System Dynamics
BODIES ORBITS EPHEMERIDES TOOLS PHYSICAL DATA DISCOVERY FAQ SITE MAP
IMPORTANT: The SSD Announcement email list is now available. Major changes are coming in the near future, including possible hostname and/or URL changes. To be notified of such changes, subscribe to this email list.

Please visit this page for more details.


JPL Small-Body Database Browser
Search: [ help ]  
97032 (1999 UL3)
Classification: Main-belt Asteroid          SPK-ID: 2097032
Ephemeris | Orbit Diagram | Orbital Elements | Mission Design | Physical Parameters | Discovery Circumstances | Close-Approach Data ]

[ show orbit diagram ]
Orbital Elements at Epoch 2458600.5 (2019-Apr-27.0) TDB
Reference: JPL 14 (heliocentric ecliptic J2000)
 Element Value Uncertainty (1-sigma)   Units 
e .2253683510290241 3.4957e-08  
a 2.763952695817974 1.416e-08 au
q 2.141045234439251 9.6304e-08 au
i 7.963449967574132 6.705e-06 deg
node 2.034194175609795 3.1145e-05 deg
peri 67.24766988465805 3.4819e-05 deg
M 66.86287432740298 1.6109e-05 deg
tp 2458288.771236189631
(2018-Jun-19.27123619)
7.4231e-05 TDB
period 1678.395613419506
4.60
1.2898e-05
3.531e-08
d
yr
n .2144905510486579 1.6483e-09 deg/d
Q 3.386860157196696 1.7352e-08 au
  Orbit Determination Parameters
   # obs. used (total)      864  
   data-arc span      7162 days (19.61 yr)  
   first obs. used      1999-09-18  
   last obs. used      2019-04-28  
   planetary ephem.      DE431  
   SB-pert. ephem.      SB431-N16  
   condition code      0  
   norm. resid. RMS      .53926  
   source      ORB  
   producer      Otto Matic  
   solution date      2019-Jul-13 06:27:43  

Additional Information
 Earth MOID = 1.16941 au 
 Jupiter MOID = 2.01347 au 
 T_jup = 3.289 
[ show covariance matrix ]

Ephemeris | Orbit Diagram | Orbital Elements | Mission Design | Physical Parameters | Discovery Circumstances | Close-Approach Data ]

Physical Parameter Table
Parameter Symbol Value Units Sigma Reference Notes
absolute magnitude H 14.8   n/a MPO325128  

97032 (1999 UL3)          Discovered 1999-Oct-20 by Urata, T. at Oohira
Reference: 20050224/Numbers.arcLast Updated: 2005-02-28

[ show close-approach data ]
Alternate Designations
 1999 UL3 = 2001 FH15 
Ephemeris | Orbit Diagram | Orbital Elements | Mission Design | Physical Parameters | Discovery Circumstances | Close-Approach Data ]
ABOUT SSD CREDITS/AWARDS PRIVACY/COPYRIGHT GLOSSARY LINKS
FirstGov 2019-Oct-17 23:56 UT
(server date/time)  
NASA Home Page
Site Manager:   Ryan S. Park
Webmaster  Alan B. Chamberlin